Regional Weather Roundup
Issued by NWS Green Bay, WI

Home | Current Version | Previous Version | Graphics & Text | Print | Product List | Glossary Off
Versions: 1 2 3 4 5 6 7 8 9 10 11 12 13 14 15 16 17 18 19 20 21 22 23 24 25 26 27 28 29 30 31 32 33 34 35 36 37 38 39 40 41 42 43 44 45 46 47 48 49 50

139
ASUS43 KGRB 241700
RWRGRB

NORTH-CENTRAL AND NORTHEAST WISCONSIN REGIONAL WEATHER ROUNDUP
NATIONAL WEATHER SERVICE GREEN BAY WI
1200 PM CDT FRI MAR 24 2017

WIZ005-009-010>012-018-019-241800-
NORTH CENTRAL WISCONSIN

CITY           SKY/WX    TMP DP  RH WIND       PRES   REMARKS
IRONWOOD       CLOUDY    35  33  92 N7        30.05R FOG
MANITOWISH WTR NOT AVBL
ARBOR VITAE    NOT AVBL
EAGLE RIVER    NOT AVBL
LAND O LAKES   NOT AVBL
RHINELANDER    LGT RAIN  36  35  96 VRB3      29.99R
PHILLIPS       NOT AVBL
ANTIGO         NOT AVBL
TOMAHAWK       NOT AVBL
MERRILL        NOT AVBL
$$

WIZ013-073-241800-
NORTHEAST WISCONSIN

CITY           SKY/WX    TMP DP  RH WIND       PRES   REMARKS
IRON MOUNTAIN  LGT RAIN  35  32  88 N8        29.98R FOG
MARINETTE        N/A    N/A N/A N/A MISG        N/A
$$

WIZ017-030-035>037-045-241800-
CENTRAL WISCONSIN

CITY           SKY/WX    TMP DP  RH WIND       PRES   REMARKS
MEDFORD        NOT AVBL
WAUSAU         LGT RAIN  37  36  96 VRB6      29.95S FOG
MOSINEE        LGT RAIN  36  36 100 E5        29.96R FOG
MARSHFIELD     LGT RAIN  37  36  96 E8        29.94S FOG
WISC RAPIDS    CLOUDY    39  38  96 NE8       29.97R FOG
STEVENS POINT  NOT AVBL
WAUPACA        NOT AVBL
SHAWANO        NOT AVBL
CLINTONVILLE   NOT AVBL
WAUTOMA        CLOUDY    41  37  86 NE8       29.95S
$$

WIZ038-039-048-051-241800-
FOX VALLEY

CITY           SKY/WX    TMP DP  RH WIND       PRES   REMARKS
NWS GREEN BAY  CLOUDY    40  36  86 N12       29.98R
APPLETON       CLOUDY    39  37  93 N13       29.94R
OSHKOSH        CLOUDY    43  36  76 N13       29.94R
FOND DU LAC    CLOUDY    46  39  76 N15       29.94R
$$

WIZ022-050-052-241800-
EAST CENTRAL WISCONSIN

CITY           SKY/WX    TMP DP  RH WIND       PRES   REMARKS
EPHRAIM        NOT AVBL
WASHINGTON ISL NOT AVBL
STURGEON BAY   LGT RAIN  35  34  96 N9        29.99R FOG
MANITOWOC      NOT AVBL
SHEBOYGAN      CLOUDY    50  42  74 N6        29.93R
$$

LMZ563-521-522-541>543-241800-
LAKESHORE

STATION/POSITION TIME  TEMP    WIND        PRES    VSBY  WAVE
                       AIR SEA DIR/SP/G                  HT/PER
                 (UTC) (F)     (DEG/KT/KT) (MB)    (MI)  (FT/S)
SHEBOYGAN LKSHOR 1600   41      20/  3/  4 1013.3R
KEWAUNEE LKSHORE 1630   41     360/  6/  9 1014.2R
NORTHPORT PIER   1640   33     330/  4/  9 1015.2R
SISTER BAY LKSHO 1620   34     360/ 12/ 13   N/A
CHAMBERS ISLAND  1640   34     340/  5/  6 1015.2R
MENOMINEE LKSHOR 1630   35     340/  7/  8 1014.3R
$$




USA.gov is the U.S. government's official web portal to all federal, state and local government web resources and services.